GFSMW_925_spd_156.txt.gz
Wind_Speed
12 23 23 21 20 17 16 13 11 10 8 7 3 2 8 12 14 15 16 18 20 22 23 24 24 26 25 23 22 22 21 22 21 24 28 24 31 26 26 28 30 33 34
10 15 23 22 21 19 15 13 11 10 8 8 8 5 6 6 11 14 15 17 19 21 23 24 24 25 25 22 22 23 22 17 21 15 22 7 14 24 25 16 20 26 26
17 14 19 25 20 21 19 15 12 10 8 9 7 6 5 4 8 14 17 17 18 21 24 22 22 22 20 22 24 21 21 20 20 16 8 4 4 14 15 21 22 13 13
16 14 20 23 26 22 19 16 13 10 8 6 5 7 7 5 8 11 14 14 18 20 24 23 23 20 22 22 21 19 21 20 20 20 11 16 17 4 7 13 22 26 21
20 18 22 25 28 24 22 18 14 10 8 6 7 9 8 7 7 9 12 13 17 19 22 23 21 20 20 19 18 20 20 20 19 18 21 19 17 16 5 9 12 24 15
19 17 22 28 27 24 23 20 16 13 10 8 8 8 7 6 6 10 13 14 14 18 20 22 19 18 17 18 17 18 18 18 18 17 20 20 9 8 6 4 7 8 10
20 17 17 22 27 28 25 21 17 15 11 7 7 6 5 4 7 9 11 13 13 16 18 18 18 18 18 17 16 16 18 18 18 18 20 19 16 17 18 14 9 5 11
17 19 21 25 26 30 27 22 19 15 11 7 7 5 4 4 6 7 8 10 11 12 14 15 15 15 16 17 18 19 18 20 20 20 20 20 16 13 11 14 8 5 4
17 18 20 25 25 29 29 24 20 15 11 9 7 5 3 3 4 6 6 8 9 10 12 14 14 15 15 16 17 19 21 22 23 21 23 20 16 12 10 12 12 9 2
15 15 17 23 24 28 28 22 18 16 13 9 7 5 3 3 3 4 5 5 7 9 12 15 16 16 15 16 16 19 22 24 26 25 26 23 19 13 10 10 10 9 12
15 14 15 21 24 29 28 23 19 17 14 9 8 6 5 4 3 4 5 5 5 9 13 16 16 17 17 18 18 17 20 24 27 30 27 27 23 18 16 12 10 9 2
11 10 14 20 23 28 27 23 21 17 13 11 10 8 7 5 3 3 5 6 5 7 12 16 18 18 18 18 19 20 20 24 26 28 30 30 27 26 22 20 17 15 12
10 10 12 16 19 25 26 23 20 17 15 14 12 10 8 6 4 5 5 5 5 6 8 16 18 22 21 18 18 19 21 21 23 26 30 32 33 29 27 25 24 21 18
11 9 9 12 18 23 26 24 20 18 17 15 14 12 10 7 5 5 6 5 6 7 8 11 16 20 22 21 18 18 20 22 23 25 27 31 33 35 31 28 26 24 23
10 12 12 10 20 22 24 23 20 20 18 17 16 14 10 8 7 6 7 7 7 8 9 10 14 17 20 22 21 22 22 23 23 24 23 26 25 29 35 35 31 27 24
13 12 12 15 22 24 26 24 23 22 19 18 17 15 11 8 9 8 9 10 11 11 10 14 16 18 18 17 20 23 26 26 26 26 26 24 24 24 26 31 35 35 28
15 16 17 17 24 26 30 28 27 24 21 19 18 16 12 12 12 11 12 13 12 11 13 15 17 18 16 15 16 21 25 28 28 28 26 26 26 22 23 27 30 33 33
9 10 12 19 23 27 29 28 26 25 23 21 20 18 17 16 15 14 15 15 13 13 14 15 16 16 14 13 15 18 22 25 27 28 27 27 26 24 24 26 29 33 33
7 12 19 22 25 30 31 28 27 26 24 23 22 22 21 18 17 16 16 15 13 12 12 12 13 14 14 12 12 14 19 23 25 26 25 27 26 22 22 27 30 30 29
15 20 24 25 28 29 31 31 29 28 25 25 24 24 24 22 19 16 15 13 11 11 9 11 11 12 11 10 11 12 15 20 23 25 25 23 24 23 24 27 27 30 25
17 24 26 25 28 33 33 30 29 29 27 24 23 24 24 22 19 17 15 13 10 8 7 7 8 9 10 9 9 11 13 16 19 21 23 22 20 22 23 23 25 22 20
17 22 22 23 29 32 32 29 29 26 25 24 24 24 24 22 20 20 18 15 10 7 5 5 6 5 7 9 9 9 10 11 15 16 15 15 16 19 20 22 21 21 22
17 21 23 25 27 31 30 29 27 26 27 25 23 23 22 21 21 21 19 20 14 10 7 6 8 7 8 10 8 9 9 9 13 13 13 14 14 15 17 18 19 22 24
14 20 22 21 25 29 28 24 26 27 28 27 24 23 23 21 19 18 19 20 20 14 9 10 11 10 8 7 4 5 6 6 7 8 9 11 13 14 15 16 18 20 21
15 20 19 19 23 29 26 22 25 29 30 27 26 24 22 21 19 17 17 20 19 16 12 10 12 12 9 7 5 5 7 7 8 7 9 10 12 14 14 15 15 16 17
17 17 17 19 24 27 25 24 27 30 31 27 25 24 24 21 20 19 14 11 13 12 9 10 11 9 7 11 10 9 8 6 4 6 10 11 11 12 12 13 13 14 15

GFSMW_925_spd_162.txt.gz
Wind_Speed
22 24 24 22 22 21 20 19 17 16 14 11 9 7 5 4 4 3 5 5 6 8 9 9 10 12 12 14 15 16 18 18 20 22 25 16 12 10 10 24 13 16 20
22 25 27 25 25 23 21 19 17 16 13 10 8 6 7 4 4 3 3 5 6 7 8 9 9 10 11 12 15 16 18 16 18 15 17 7 13 3 30 11 11 17 27
26 23 27 28 27 25 23 20 18 16 13 11 10 8 7 6 4 2 2 4 5 6 7 6 7 9 11 12 14 14 15 17 17 14 6 4 5 19 10 14 9 19 28
25 23 26 29 29 26 23 21 18 16 14 13 10 10 6 6 4 3 2 1 4 4 5 7 8 9 9 10 11 12 13 14 16 15 5 12 16 4 8 11 27 21 29
28 28 28 33 30 27 25 22 19 16 14 12 9 8 7 7 5 3 2 2 1 3 6 7 9 9 9 10 11 12 13 13 14 14 15 14 15 19 9 11 16 27 25
26 26 32 31 31 28 26 23 21 17 14 11 10 8 8 6 5 4 4 2 1 2 7 8 9 8 8 9 10 11 12 13 13 13 14 14 9 15 12 9 14 14 19
25 25 27 31 33 32 29 25 23 19 16 14 11 9 7 6 5 5 4 3 2 4 8 9 8 7 8 9 10 10 12 13 14 15 16 15 15 16 17 16 14 9 22
22 27 27 32 34 33 31 27 25 22 18 15 12 9 8 6 6 5 4 4 4 6 7 7 6 7 8 9 10 9 11 13 14 15 16 17 14 14 15 14 12 8 6
23 25 25 32 35 35 33 29 26 21 19 16 13 10 8 7 6 5 5 4 6 6 6 5 6 7 9 10 9 9 12 13 14 16 18 18 15 14 13 13 12 8 3
20 22 23 32 34 35 32 28 26 23 20 17 14 11 10 8 7 6 7 6 6 6 5 6 6 7 9 10 10 9 11 12 14 16 18 20 18 14 13 13 12 12 9
18 20 21 30 31 31 31 29 26 23 20 17 14 13 11 10 8 7 7 6 6 6 6 6 6 8 9 9 9 9 11 12 13 16 18 21 20 16 15 14 13 11 11
15 17 12 24 28 30 31 30 27 24 21 18 16 14 13 10 9 8 8 7 6 5 5 5 7 9 8 8 9 10 11 13 15 17 19 22 23 20 18 15 15 13 14
15 16 17 14 18 25 26 27 26 26 24 20 17 16 13 12 10 9 8 7 6 5 4 4 8 8 9 9 9 9 10 11 13 16 18 21 23 24 21 18 17 15 14
14 16 18 18 23 25 24 26 25 29 26 22 18 16 14 13 11 10 9 8 6 5 4 4 6 8 9 9 9 8 9 10 12 13 16 19 23 26 23 20 19 18 15
16 16 17 18 25 25 25 25 24 30 27 25 20 18 15 13 12 11 10 8 7 6 5 5 5 7 9 10 7 8 9 11 11 13 14 16 18 22 27 26 21 20 18
16 17 18 19 23 27 28 27 25 25 25 25 21 18 16 16 13 12 11 10 9 8 8 7 7 9 8 10 10 9 10 12 12 13 13 15 16 15 21 25 28 28 21
18 20 21 20 26 29 30 30 27 25 23 22 20 19 17 16 14 13 13 12 11 10 9 9 9 8 8 8 9 11 12 13 14 14 13 14 16 15 15 17 21 27 26
18 18 17 23 27 28 28 27 27 27 24 22 20 19 20 18 16 15 15 13 12 11 9 9 8 7 6 6 8 11 12 13 14 14 14 14 16 17 14 15 18 21 25
16 16 26 26 28 30 30 30 28 27 25 24 23 21 23 21 18 17 16 14 13 11 9 8 8 7 5 4 6 7 9 11 13 15 16 14 15 15 14 14 16 17 17
12 17 22 26 28 30 31 31 30 29 27 26 24 22 22 20 19 18 16 14 12 11 10 8 7 7 6 4 4 6 5 7 9 10 12 17 16 17 16 14 13 16 15
11 19 23 22 26 31 31 28 28 27 26 25 23 23 22 21 20 18 16 15 13 12 10 9 7 6 6 5 5 7 5 5 6 7 9 12 13 15 16 16 14 12 10
14 18 20 20 24 29 29 26 25 25 30 28 26 25 24 22 21 19 16 15 14 12 11 10 8 6 5 6 5 7 7 7 6 7 7 7 10 13 14 13 13 12 11
15 17 19 21 20 23 25 25 23 31 30 27 25 25 24 22 22 19 17 16 14 12 11 11 9 8 8 6 7 6 6 7 7 7 7 7 7 8 9 14 13 12 12
15 18 20 19 20 20 21 22 29 31 31 27 25 24 24 22 21 18 17 15 15 13 11 10 10 10 10 8 6 5 4 4 5 5 5 4 7 9 8 8 11 12 12
16 18 17 18 19 21 19 22 29 31 25 23 23 23 22 21 19 18 17 16 14 13 12 11 11 12 11 10 9 8 6 5 5 5 3 2 3 4 6 7 9 10 10
17 17 17 18 21 22 21 22 25 27 26 24 23 23 22 22 20 18 16 15 12 16 13 11 10 9 9 12 10 10 9 7 6 3 3 3 3 4 5 6 6 8 9

GFSMW_925_spd_165.txt.gz
Wind_Speed
23 28 27 27 27 26 26 24 23 21 18 15 13 11 9 8 7 6 5 5 6 7 7 6 8 10 10 12 14 15 17 17 22 19 26 17 15 14 13 20 16 13 17
23 24 29 29 29 28 26 25 22 21 17 14 12 10 10 8 7 5 4 5 5 6 5 7 8 9 10 11 13 15 16 15 19 18 16 7 13 19 27 12 13 19 18
25 25 26 31 30 29 27 26 23 21 17 15 14 13 10 9 7 5 4 2 3 4 6 6 6 8 8 10 12 13 15 16 17 18 8 5 5 20 12 21 20 26 25
26 26 25 31 32 30 28 26 24 22 19 17 15 14 12 10 7 6 5 3 3 4 5 5 6 7 7 8 10 12 13 15 15 16 13 12 15 4 8 10 31 24 29
25 28 27 34 32 31 30 28 26 23 20 17 15 13 9 9 9 7 6 5 3 3 5 5 5 5 6 7 9 11 12 12 13 15 16 15 13 15 7 11 18 28 26
22 25 32 33 33 32 30 29 28 24 21 18 16 13 13 12 11 8 7 5 3 2 4 4 4 4 5 6 8 9 11 12 12 12 14 14 9 14 12 9 16 18 26
22 24 26 25 31 34 32 31 30 26 23 20 17 15 14 12 11 8 6 5 4 2 2 3 3 4 6 7 8 8 10 10 11 13 14 14 14 15 16 17 15 11 26
18 21 24 26 32 33 34 33 32 28 25 22 19 16 15 13 11 8 7 5 4 3 1 1 3 4 6 7 7 7 9 10 11 12 13 16 15 14 15 14 14 10 9
21 21 21 27 30 32 32 32 34 29 26 23 20 17 15 14 11 9 8 6 5 4 2 3 3 5 7 7 8 7 10 11 11 12 14 16 17 17 14 13 13 9 5
18 20 21 24 28 30 29 28 30 30 28 24 20 18 16 14 12 10 9 8 6 5 4 3 4 5 6 8 8 7 10 10 11 12 15 17 19 17 15 13 12 11 8
15 17 19 28 31 32 31 29 29 29 27 24 20 19 18 14 12 11 10 9 7 6 4 4 5 6 7 8 8 8 9 10 11 14 15 18 19 19 17 14 12 10 11
13 15 12 24 27 29 30 30 29 31 28 25 21 21 18 15 12 11 10 9 8 6 5 5 6 7 7 7 8 7 8 9 11 13 16 18 20 20 19 17 14 12 11
12 15 15 14 15 24 28 29 29 29 27 25 24 21 18 15 13 11 10 9 9 7 6 6 7 7 7 7 6 6 7 8 9 12 15 18 19 23 22 19 18 14 11
10 14 15 15 22 25 24 23 23 28 29 26 23 21 19 17 13 12 11 10 9 8 7 6 7 8 7 5 5 5 6 7 9 10 13 14 18 21 23 20 21 16 13
12 14 16 18 23 26 22 25 21 31 30 30 26 25 20 17 13 13 12 11 9 8 7 7 7 5 6 6 4 5 6 7 8 10 11 13 12 18 22 23 22 20 16
14 16 18 20 22 29 28 27 26 27 30 29 26 24 21 19 16 14 13 11 11 9 10 8 7 6 6 8 9 7 7 8 9 9 10 11 12 12 18 20 24 25 21
15 17 17 20 26 30 32 32 30 28 25 25 26 25 23 23 18 15 15 15 14 11 11 10 9 8 7 8 9 9 9 10 10 10 10 10 12 12 12 14 18 23 24
13 16 16 21 27 30 29 29 28 28 25 23 22 25 25 23 23 19 18 15 12 12 10 9 9 7 6 7 9 10 10 11 11 10 10 11 12 13 11 11 14 17 21
10 13 21 25 29 30 31 32 30 29 27 26 25 23 26 24 22 18 17 16 15 13 12 10 9 8 6 5 8 5 7 8 9 12 13 11 13 12 10 11 13 14 15
9 17 25 26 26 29 32 30 30 30 28 28 26 24 24 22 21 20 20 18 15 14 11 10 9 8 6 4 7 5 3 4 6 7 9 13 13 13 12 10 10 13 12
5 20 26 25 27 29 28 23 26 25 27 27 26 24 24 22 21 20 18 17 16 14 12 10 9 7 6 5 5 7 3 4 4 4 6 8 11 12 13 12 11 10 8
6 15 18 20 31 33 32 26 22 29 31 30 28 27 25 23 23 21 19 17 16 15 14 12 10 8 7 6 5 7 7 6 5 4 4 4 9 12 12 11 11 10 8
13 13 18 20 21 26 32 25 22 34 35 32 28 27 25 22 22 22 20 18 16 14 14 13 11 10 10 8 7 6 8 7 6 6 7 5 8 8 7 12 11 10 9
13 15 19 19 18 21 23 24 31 34 32 28 27 26 24 23 22 18 18 16 16 14 13 12 12 12 11 11 8 6 6 6 5 5 4 4 5 7 6 6 8 9 9
17 21 19 20 22 23 22 27 31 33 28 26 26 24 23 22 22 18 17 15 15 14 12 12 12 13 13 13 11 9 7 6 6 5 3 2 2 2 3 5 6 7 7
17 17 20 22 24 24 23 26 28 29 28 26 24 24 23 22 21 19 16 11 15 13 11 11 10 8 9 15 15 14 11 9 7 3 3 2 2 2 2 3 4 6 6

GFSMW_925_spd_171.txt.gz
Wind_Speed
23 37 41 37 41 43 41 43 40 36 35 36 35 30 30 27 22 18 15 14 14 14 13 11 12 13 12 13 14 15 17 23 25 16 12 12 10 12 18 15 22 25 29
22 23 35 36 43 46 42 40 39 38 37 36 31 29 32 27 21 19 15 14 14 13 13 11 14 12 10 11 14 17 19 20 23 14 6 5 6 10 10 15 27 27 27
23 24 23 36 42 44 46 45 44 40 36 33 31 28 27 24 21 20 18 15 14 13 13 13 14 12 10 12 14 17 17 15 17 21 10 3 2 12 9 12 20 34 30
22 26 24 26 41 43 45 46 49 47 38 34 31 34 26 26 24 25 21 17 13 13 13 13 14 11 11 11 15 14 13 13 15 7 12 7 4 2 5 6 11 27 24
23 26 29 35 43 45 45 43 44 44 41 38 37 38 29 24 29 27 23 18 14 13 14 13 12 12 12 12 14 12 11 13 13 12 7 6 5 2 4 5 15 24 24
18 27 31 37 36 39 40 41 42 38 38 39 42 38 33 30 34 30 25 21 17 15 14 13 11 11 11 11 12 11 10 10 10 11 9 7 3 5 3 4 14 13 19
16 23 25 24 35 40 42 41 42 36 34 39 37 31 33 36 34 30 27 24 20 16 14 13 11 11 11 12 11 9 10 8 8 10 7 5 4 5 6 9 8 6 9
17 26 29 27 34 40 41 41 41 38 39 34 32 28 38 33 29 28 28 25 23 17 14 12 12 11 11 13 10 7 10 7 6 8 7 4 4 6 6 6 8 4 3
14 25 22 20 32 37 39 41 39 37 39 35 35 38 34 30 29 30 27 27 20 16 15 12 13 11 12 11 9 8 9 7 7 8 6 5 6 5 7 6 7 5 3
11 17 18 16 24 29 31 35 34 36 38 38 40 33 31 30 32 30 28 23 18 18 17 14 12 11 12 11 8 9 8 7 7 6 6 7 7 7 7 8 7 6 5
7 12 12 22 29 32 31 30 33 35 39 40 38 34 33 31 29 28 25 22 20 20 16 14 13 12 12 10 10 9 8 8 7 7 7 9 9 8 9 9 7 7 6
8 8 9 14 23 28 31 32 33 36 39 40 37 35 33 29 28 26 24 22 22 19 16 15 14 13 12 12 12 9 9 8 9 10 12 14 13 11 10 10 9 10 10
10 11 6 9 16 25 25 30 33 38 36 40 39 35 33 32 29 25 24 22 22 19 17 15 15 14 13 13 10 10 9 9 9 10 13 17 18 16 12 11 11 11 10
10 12 10 11 19 25 32 33 32 40 42 43 40 37 35 31 28 26 22 24 21 20 19 17 16 15 14 13 11 10 11 11 10 10 12 17 19 19 16 14 13 12 12
14 14 15 11 13 18 24 31 36 40 43 42 41 39 35 32 27 24 26 22 21 19 17 18 17 15 15 15 14 13 13 13 13 10 13 14 14 14 17 18 16 14 14
12 15 18 19 17 25 27 28 31 38 44 38 33 37 32 27 28 28 27 23 23 19 19 20 17 14 16 14 15 15 16 15 13 10 10 11 10 10 13 16 19 18 18
12 17 18 18 21 27 29 32 34 38 38 36 35 34 33 32 30 30 28 26 27 25 25 25 18 13 18 15 14 14 14 13 11 10 10 9 9 8 8 13 16 18 20
11 15 14 14 24 28 30 29 30 32 33 33 32 35 34 32 33 31 31 30 28 27 26 21 16 16 17 15 14 13 13 13 11 10 10 12 12 8 8 11 14 14 15
8 10 23 26 28 30 30 32 31 31 32 31 36 37 36 33 34 35 34 31 28 26 23 19 18 19 20 16 15 12 14 14 12 9 8 10 12 8 10 13 13 14 14
4 12 25 28 29 30 36 33 30 29 27 29 30 34 36 33 32 34 34 30 27 26 22 19 15 17 20 17 16 13 12 14 14 11 11 10 10 8 8 9 12 13 11
5 17 30 29 32 35 33 27 28 27 28 30 32 33 30 32 32 31 31 29 28 27 25 19 18 16 19 18 15 15 14 11 13 10 8 10 9 9 10 11 11 9 8
4 7 15 21 32 36 34 30 30 30 36 36 34 32 32 31 31 32 30 30 30 28 23 19 18 16 15 17 16 12 16 13 16 12 8 11 10 9 10 9 6 7 7
4 5 15 18 24 30 31 27 27 36 35 37 36 33 32 31 30 31 29 25 27 24 22 20 19 19 17 14 15 14 15 13 15 10 7 8 10 10 10 8 6 8 9
7 12 12 15 17 27 29 28 30 37 31 32 33 31 29 30 30 28 28 25 25 23 22 21 21 19 21 16 15 16 15 14 13 11 10 10 10 11 9 7 7 9 7
11 14 12 13 18 27 29 34 36 36 28 24 25 27 28 28 28 25 25 24 24 26 24 24 24 23 20 21 16 18 19 16 13 13 14 11 10 10 10 7 5 5 5
15 13 14 15 16 25 29 32 35 36 33 26 25 26 26 26 25 26 23 19 22 21 20 21 24 24 16 18 16 14 16 15 14 14 13 10 9 11 15 12 8 4 5

GFSMW_925_spd_174.txt.gz
Wind_Speed
26 31 33 36 38 37 41 44 47 47 46 42 38 33 30 26 22 20 19 19 19 17 16 16 15 11 9 10 10 10 13 18 13 7 11 11 8 15 14 18 23 21 19
15 20 31 36 38 42 43 44 48 53 49 45 37 34 33 28 25 21 19 19 19 18 16 16 15 11 12 11 11 10 9 17 19 6 5 3 0 5 9 13 20 19 19
22 23 22 36 38 42 45 46 47 51 50 45 41 34 33 29 25 23 21 20 19 19 17 16 15 13 11 13 13 12 13 10 16 18 8 3 1 5 5 11 17 18 18
19 24 26 25 40 43 43 45 46 48 45 49 39 45 30 26 23 28 24 21 18 18 17 16 15 13 12 14 14 13 14 12 12 15 15 9 4 3 4 8 14 14 19
20 21 24 33 43 43 46 45 43 42 43 47 41 38 30 26 31 28 25 21 19 18 18 16 15 15 14 13 13 13 14 15 18 15 7 9 7 5 0 3 10 13 14
17 20 28 36 36 37 39 41 43 39 45 42 38 35 36 33 33 32 29 24 21 19 18 17 15 15 15 13 13 12 13 15 17 15 13 10 4 1 1 2 7 10 9
13 18 22 19 30 37 41 41 44 41 41 38 40 40 38 36 38 36 32 29 25 22 20 18 17 16 16 15 12 11 12 12 14 12 11 8 5 1 3 5 3 2 6
10 17 24 24 32 41 45 45 44 41 41 43 44 49 44 39 38 37 33 31 28 24 21 19 17 17 17 16 12 11 13 11 11 11 10 7 3 1 3 3 3 2 3
9 13 24 23 29 34 36 39 41 37 39 39 40 33 38 42 39 36 32 30 26 24 21 19 18 17 17 16 12 13 13 10 9 10 9 6 3 0 3 1 2 3 2
8 11 13 13 20 26 30 34 34 32 32 33 38 42 40 37 42 39 35 32 28 25 23 20 19 19 17 15 13 14 12 10 10 8 7 5 3 2 0 1 1 1 2
9 10 12 16 22 23 26 28 33 34 36 37 37 41 36 39 38 38 36 35 29 27 24 21 21 19 18 14 14 14 13 12 10 8 6 4 2 2 3 3 3 2 3
8 9 11 13 21 24 25 24 23 28 34 40 41 44 46 39 38 37 36 31 29 26 23 23 21 19 17 15 15 15 13 12 12 9 8 5 4 5 6 6 4 3 5
7 12 13 11 9 19 26 30 31 30 34 39 42 41 43 45 42 38 35 31 29 25 23 23 21 19 17 17 14 14 14 12 11 10 9 8 6 8 7 7 6 5 5
7 7 9 11 16 26 32 33 32 38 40 40 41 40 42 42 39 34 32 29 26 24 26 22 21 19 19 17 16 15 15 13 11 10 9 9 11 11 10 9 7 6 6
12 11 10 10 11 16 22 29 34 41 43 40 38 39 39 39 37 33 31 27 25 25 25 24 22 21 19 17 17 16 15 15 13 11 9 8 10 12 13 13 12 9 10
9 10 12 14 16 23 27 28 29 33 43 39 36 38 39 38 37 35 32 25 27 25 24 24 24 22 19 18 16 17 17 15 13 14 11 11 9 12 14 18 17 17 17
12 13 16 17 17 27 30 29 31 34 34 37 41 39 40 38 35 33 29 32 25 26 26 25 22 20 19 18 17 17 17 16 14 13 13 11 10 8 12 14 16 16 17
9 15 13 13 21 26 26 28 31 29 29 31 36 41 36 34 32 32 33 29 29 30 28 24 20 21 19 18 18 17 16 16 14 12 12 13 12 9 11 12 13 12 12
7 15 23 22 24 27 29 30 29 29 29 29 32 39 40 36 34 31 30 32 34 31 28 25 22 21 20 17 17 17 17 15 14 12 13 14 13 11 11 13 14 12 11
4 6 19 22 23 27 32 32 31 30 28 29 28 32 39 38 34 30 32 33 32 30 27 23 19 20 21 18 16 16 17 17 15 13 12 14 14 12 12 13 12 12 9
3 10 20 22 26 32 33 30 30 30 31 28 28 28 31 34 31 32 32 32 29 26 24 21 19 21 23 21 17 15 17 17 17 16 16 14 11 11 11 10 10 8 7
3 8 11 15 23 28 29 25 25 25 32 39 34 30 31 32 33 33 30 28 26 25 22 22 19 19 22 21 17 16 16 16 16 15 13 13 12 13 12 9 6 7 8
3 5 12 17 21 29 30 24 23 30 30 30 34 33 32 31 33 34 30 26 26 25 21 19 18 21 22 21 18 15 17 21 18 13 11 12 11 12 11 7 6 8 8
4 6 12 14 15 23 24 24 32 33 31 26 25 29 30 31 30 30 32 28 25 23 22 20 18 19 21 22 22 20 17 19 19 15 12 13 11 11 12 9 10 8 7
5 8 10 11 13 21 26 30 32 32 26 24 24 24 23 27 28 27 29 28 27 30 26 23 22 22 24 27 24 25 22 21 19 16 16 14 14 13 11 9 7 7 6
7 7 10 14 16 23 25 28 32 34 31 27 27 27 27 27 25 23 21 20 26 27 25 21 25 25 20 24 21 20 19 20 19 18 20 19 16 15 13 12 9 8 7

GFSMW_925_spd_177.txt.gz
Wind_Speed
24 22 28 31 32 33 35 40 40 44 47 41 41 39 37 32 27 25 24 23 23 21 19 18 16 13 11 11 10 10 10 14 19 14 11 10 10 11 13 16 16 15 14
11 14 24 31 37 39 37 39 41 45 45 39 35 32 36 33 30 26 24 22 23 21 20 19 17 14 12 12 10 8 6 10 7 5 6 1 2 5 9 14 15 14 15
14 14 17 32 37 41 44 45 45 45 42 38 34 31 33 33 30 28 26 25 22 21 20 19 16 14 11 11 9 7 7 9 11 8 4 2 3 1 2 11 14 14 13
9 14 19 20 35 43 43 43 44 46 43 46 40 43 34 27 23 32 30 27 24 21 20 19 17 15 12 11 10 8 8 10 13 11 14 10 4 3 2 4 10 10 11
11 16 20 26 41 37 43 44 41 43 41 45 40 39 28 25 32 32 29 26 23 22 21 20 19 17 15 12 10 10 10 11 10 9 9 9 10 10 4 1 6 7 9
11 11 18 30 31 32 34 37 39 42 41 45 45 41 36 35 36 35 33 30 27 24 21 21 19 18 17 15 12 12 11 14 14 12 9 7 4 4 5 3 3 6 4
12 11 12 17 22 32 36 38 41 41 42 42 43 48 50 43 42 41 36 34 31 26 24 21 21 20 17 16 13 13 13 12 13 12 13 11 12 11 9 3 1 2 4
8 12 12 18 20 35 39 41 41 39 42 39 36 36 42 41 39 41 38 35 34 31 25 21 20 20 19 17 14 14 13 12 13 12 12 11 11 11 7 4 2 1 2
10 9 13 17 24 35 39 41 40 37 40 38 36 35 40 36 33 35 38 37 33 29 27 23 21 21 20 16 16 16 14 12 11 12 11 11 11 9 6 5 4 0 1
8 10 8 8 18 25 27 29 31 33 32 34 33 32 29 35 30 38 40 37 35 32 28 25 23 22 22 18 16 18 14 12 11 10 9 11 10 7 6 4 4 3 1
5 5 9 11 18 21 23 25 27 29 31 31 32 34 35 35 36 30 35 38 36 31 30 28 26 24 23 20 21 17 15 12 12 10 8 10 8 7 6 5 4 3 2
9 4 9 12 17 20 23 25 27 29 32 34 37 42 43 41 39 40 38 37 36 33 30 28 26 24 23 23 20 18 15 13 13 11 9 9 8 8 5 5 3 5 2
5 1 6 10 11 21 28 30 29 29 31 35 30 30 30 36 36 34 38 38 35 31 29 27 25 22 25 22 19 17 17 15 13 11 10 9 8 8 6 3 3 3 3
3 4 5 6 6 17 18 23 27 38 41 37 38 36 39 41 42 39 39 37 33 33 28 24 22 25 23 21 19 18 17 16 14 12 12 11 9 8 4 4 6 5 5
7 9 6 7 6 9 15 20 21 28 28 32 32 34 36 42 44 42 40 36 33 30 26 25 22 25 24 22 21 20 18 17 16 13 12 11 12 9 6 4 6 6 7
8 9 10 9 10 13 16 19 20 30 34 34 32 35 35 37 41 41 40 37 33 28 28 24 24 25 23 21 20 20 19 17 16 15 13 12 11 11 10 9 11 9 10
10 9 13 15 14 21 24 23 25 31 30 31 34 37 39 37 37 40 39 38 33 29 28 24 26 23 20 20 20 19 19 17 14 13 13 11 8 9 10 9 11 13 15
12 11 12 11 17 21 23 24 29 28 28 27 27 34 35 35 33 36 35 33 34 32 28 26 24 21 21 21 21 19 17 15 13 11 11 9 10 8 9 9 9 11 12
9 9 14 14 19 25 27 26 26 27 27 28 30 34 38 36 35 31 30 30 32 33 27 24 24 24 22 20 20 21 19 16 13 11 9 10 11 10 9 10 10 10 8
10 4 11 16 20 22 28 27 26 28 28 31 32 34 38 41 35 33 32 31 30 31 28 27 25 25 22 17 20 21 19 17 15 12 12 10 10 10 10 9 9 10 7
5 13 15 13 17 25 28 24 25 25 25 26 29 30 31 33 37 34 33 32 29 30 27 29 25 24 22 18 17 18 18 17 16 15 15 15 11 10 10 8 7 5 5
8 9 9 13 22 27 26 20 19 23 29 30 26 27 30 32 37 36 31 32 30 27 27 28 24 23 23 20 16 15 13 13 15 15 14 14 11 11 10 9 8 7 6
4 7 6 9 15 22 25 21 20 30 32 30 29 29 29 32 36 36 33 29 28 25 22 23 22 26 26 22 18 14 11 12 12 11 12 13 10 10 9 8 9 10 10
2 3 3 4 7 15 17 19 28 30 30 27 27 29 28 28 29 29 32 29 27 24 23 21 20 24 27 25 21 18 16 16 14 14 13 12 14 12 11 10 9 10 10
2 3 5 6 9 17 19 21 27 28 25 23 24 24 26 27 25 28 31 32 31 32 26 24 27 27 27 28 25 24 21 22 21 19 17 18 16 15 13 11 10 10 9
5 4 6 10 12 18 19 21 25 27 25 23 23 24 25 25 25 24 22 23 29 27 23 22 21 19 18 22 25 23 20 19 21 23 21 21 20 19 17 15 12 10 8

GFSMW_925_spd_183.txt.gz
Wind_Speed
21 23 25 26 27 29 33 37 39 43 42 38 37 36 39 38 42 41 38 36 34 32 29 25 26 25 24 20 21 21 22 18 20 18 14 11 10 10 9 9 10 10 10
19 16 21 22 27 33 35 35 39 42 46 39 37 30 33 32 41 41 38 36 36 34 31 29 28 27 24 25 23 23 18 13 17 6 9 4 4 7 7 6 8 9 8
21 18 13 20 25 29 34 40 40 38 41 36 31 24 28 26 30 40 40 39 37 36 33 32 30 27 23 26 25 21 16 15 14 12 5 4 3 9 5 5 7 7 8
17 16 14 15 20 28 33 34 32 36 37 38 35 38 38 28 28 30 30 39 38 37 34 32 29 28 28 24 24 21 16 15 16 9 8 4 6 3 5 5 5 6 6
18 16 16 19 20 23 27 30 29 31 34 41 39 36 33 32 29 31 32 38 39 38 36 35 32 29 26 24 21 22 19 14 14 11 8 6 5 4 3 4 8 5 5
19 19 17 18 21 19 23 27 32 33 37 39 41 41 38 36 34 35 34 34 39 38 35 33 32 30 27 22 20 18 18 15 15 11 10 7 4 6 5 3 7 7 5
19 19 19 17 20 19 22 27 32 34 38 41 42 43 41 41 42 43 39 35 37 39 39 35 31 27 26 24 22 19 18 16 16 15 10 6 5 6 8 11 8 6 7
20 18 20 16 20 24 23 29 33 35 37 39 41 39 38 36 35 38 39 36 34 35 40 37 31 28 25 24 22 21 19 18 15 18 13 10 9 8 8 7 12 5 5
23 23 19 21 24 27 27 28 34 33 34 36 34 33 33 31 31 34 34 33 33 35 38 32 29 26 25 25 25 22 19 18 16 17 14 11 8 8 9 9 8 7 5
24 23 21 19 24 24 24 18 27 27 28 30 31 32 31 29 27 32 34 37 39 39 35 32 29 28 24 23 22 23 21 19 15 14 12 9 7 7 8 7 5 4 5
18 20 20 25 21 24 17 14 18 19 25 29 29 29 32 33 36 34 33 35 39 39 36 35 33 29 26 23 23 21 20 18 16 15 14 12 11 9 9 8 6 5 5
21 19 17 16 14 15 13 9 6 20 26 30 32 31 32 35 35 36 36 38 36 35 38 36 34 31 28 25 26 24 20 18 16 14 13 13 13 12 10 9 9 7 4
23 20 18 16 9 10 12 8 6 10 18 24 27 29 32 33 35 37 38 41 40 35 34 36 36 35 33 28 23 24 20 16 16 14 13 13 13 11 11 9 9 8 6
20 18 15 14 13 9 12 8 8 16 20 21 25 28 30 33 37 40 43 45 45 42 38 39 36 34 33 29 24 22 21 17 15 13 13 13 13 12 12 10 11 9 8
16 14 12 13 16 11 10 11 14 16 21 22 23 25 26 29 33 34 35 38 40 40 35 36 35 32 30 31 27 22 20 19 16 13 12 12 13 14 14 10 11 10 9
16 18 17 18 18 14 15 15 17 21 23 23 23 25 28 31 31 36 37 34 37 35 34 36 35 30 25 28 23 23 23 19 16 15 12 12 12 13 13 12 13 11 11
19 20 16 16 18 21 17 18 18 22 24 22 28 28 28 32 35 36 37 39 37 36 36 34 35 34 30 28 27 25 22 21 20 18 17 15 13 15 15 15 14 13 13
20 21 18 17 26 18 17 17 21 19 21 21 22 29 33 29 28 32 33 32 32 35 33 33 34 33 29 29 29 25 22 21 21 21 21 18 18 18 18 16 16 15 14
18 17 24 23 25 8 13 17 17 19 17 20 23 28 29 31 34 31 31 33 35 32 29 33 33 30 29 25 25 26 26 23 21 20 20 19 20 19 18 18 17 15 14
21 21 22 15 12 6 7 14 18 19 20 22 23 25 30 29 28 29 32 33 32 31 32 31 31 30 29 28 26 25 26 23 20 20 20 19 20 18 19 19 18 15 16
24 27 17 11 9 3 7 10 12 13 15 15 19 21 26 28 27 29 29 32 28 27 26 28 28 27 28 26 23 24 24 23 19 17 17 16 19 16 17 16 15 13 19
20 17 11 7 7 4 10 10 10 14 19 24 23 21 24 27 31 32 30 29 31 26 24 25 24 26 27 27 23 24 24 25 23 19 17 17 20 17 15 16 13 15 16
14 10 10 9 2 3 9 6 9 16 21 23 24 25 25 23 29 32 31 28 29 26 23 23 22 23 27 24 22 20 22 21 19 20 20 20 19 16 15 15 14 15 12
10 13 8 5 3 2 4 5 13 19 21 20 21 22 23 25 26 26 28 29 28 26 26 25 23 23 24 26 23 21 19 20 17 19 22 19 19 19 14 15 16 12 11
13 11 9 4 9 8 7 6 12 17 18 19 21 21 21 23 22 21 24 26 29 33 31 28 30 30 25 27 29 27 24 23 24 24 22 18 17 17 16 14 13 13 13
14 12 11 11 6 3 6 4 8 15 18 16 18 20 21 20 22 21 18 19 24 26 27 30 35 27 25 30 26 23 21 23 25 22 19 18 18 17 17 16 13 12 12

GFSMW_925_spd_186.txt.gz
Wind_Speed
14 15 16 16 19 21 24 27 30 32 32 33 32 31 38 40 39 37 36 38 32 30 28 24 23 22 21 20 20 20 21 19 21 19 16 12 10 10 8 8 8 8 8
13 17 21 15 16 19 22 27 30 31 35 33 32 27 27 28 36 34 36 39 38 37 33 28 27 26 23 22 23 22 24 21 25 11 13 7 6 7 7 7 7 8 7
17 19 21 23 20 19 23 27 31 32 34 34 27 22 21 19 24 32 38 46 45 43 38 33 29 28 25 26 26 26 21 17 23 18 5 5 5 14 9 9 8 8 6
18 19 18 22 25 25 22 24 27 30 32 38 34 37 30 22 26 31 33 35 39 40 43 39 32 30 26 25 27 28 24 15 21 14 10 1 11 5 6 10 9 9 7
17 17 18 21 23 23 26 25 24 28 30 38 38 38 36 31 27 32 33 35 41 44 43 41 38 32 25 25 24 23 22 21 18 15 15 8 6 6 8 8 13 11 7
18 16 19 20 21 23 26 26 25 29 31 38 40 40 38 34 31 33 35 35 35 35 33 40 38 33 32 32 28 26 19 14 13 16 16 14 8 13 7 9 16 13 11
15 16 16 18 24 27 28 28 28 29 29 37 40 42 41 39 39 40 37 35 34 35 36 40 40 37 35 32 32 26 21 12 17 15 13 12 9 10 9 12 14 11 11
18 17 16 19 23 27 31 33 33 32 34 36 39 38 37 37 35 39 40 40 40 38 37 42 35 36 35 30 26 25 20 19 16 14 11 11 11 12 11 12 15 9 8
23 23 20 23 24 27 30 34 35 39 35 32 33 34 35 36 34 33 35 35 32 33 38 42 42 35 32 31 28 24 24 23 21 18 16 13 12 13 12 13 14 11 6
24 24 22 23 26 26 29 34 35 35 38 29 32 32 31 31 32 32 33 33 32 34 37 39 39 37 30 28 26 26 23 23 19 17 19 15 12 13 13 12 9 7 6
23 23 24 32 31 27 20 23 32 35 36 23 23 27 30 32 34 33 33 37 38 40 40 42 38 32 28 26 23 22 22 18 19 19 19 17 15 14 15 12 10 10 9
25 23 23 30 29 29 23 19 25 26 28 17 28 29 30 30 32 32 34 39 40 42 44 41 40 34 26 20 18 19 22 20 18 17 18 18 16 14 14 12 11 11 10
24 23 22 21 20 26 26 26 23 20 21 13 13 19 26 29 29 33 35 38 41 44 45 44 42 37 30 28 20 23 20 15 15 18 18 18 20 16 14 12 12 13 13
25 23 20 20 22 27 29 31 24 18 13 12 16 20 22 26 30 33 36 40 45 44 43 44 42 38 36 34 32 23 19 18 14 15 17 16 17 16 17 14 13 12 13
26 24 20 19 19 24 30 30 20 20 19 17 15 18 22 27 31 34 36 38 38 38 38 39 37 35 35 33 31 29 25 21 19 17 15 16 16 19 18 16 15 15 13
25 23 25 26 23 24 29 30 19 18 22 21 20 20 21 24 27 29 31 33 32 34 34 32 32 35 27 31 31 29 27 27 22 20 16 17 20 22 23 21 19 14 12
21 25 29 27 24 26 29 28 15 13 15 18 22 22 25 21 21 26 31 32 32 34 34 27 29 29 23 35 34 30 24 23 21 18 17 16 14 17 17 17 17 18 17
26 26 22 25 31 29 28 22 10 11 11 14 18 22 25 25 28 27 28 29 35 35 32 33 30 30 30 32 31 29 27 26 26 24 21 16 17 16 17 17 15 13 12
24 22 29 31 30 26 23 14 9 11 10 13 18 21 25 26 28 29 32 32 32 32 30 31 29 29 33 34 33 30 26 23 22 23 21 21 22 21 19 21 17 14 12
30 28 31 30 26 23 18 13 9 10 12 13 17 23 24 25 25 29 34 30 30 28 27 26 27 33 34 35 33 26 21 21 20 19 19 19 21 22 18 16 15 13 13
25 29 28 21 21 19 15 13 11 11 9 13 18 23 24 26 26 28 31 31 27 28 26 27 27 27 28 29 29 25 23 24 22 20 19 17 19 21 20 15 14 11 15
21 22 16 12 17 17 17 14 10 10 11 17 18 22 25 25 32 32 29 31 30 27 26 24 22 21 26 29 23 21 18 21 20 20 18 19 22 20 21 17 15 14 15
22 20 16 14 18 14 14 12 8 8 14 18 19 23 24 26 30 33 29 27 27 26 24 24 21 22 25 26 25 20 18 21 15 16 19 20 23 19 17 16 17 19 14
19 22 20 14 13 16 13 11 8 10 13 15 20 22 23 25 25 25 26 26 25 24 23 22 22 23 24 25 24 20 19 19 15 16 16 22 20 16 15 16 14 13 12
20 19 18 12 11 10 8 7 6 10 13 13 19 19 20 23 23 21 22 21 22 26 28 25 26 28 25 27 29 26 22 18 17 19 19 20 18 16 15 16 15 14 13
17 18 16 14 10 9 7 4 2 10 15 13 13 13 15 18 18 19 16 16 21 21 21 24 26 22 21 28 28 25 23 22 25 20 19 19 19 18 17 17 16 16 15